Hourly Weather Roundup
Issued by NWS Central Illinois

Home | Current Version | Previous Version | Text Only | Print | Product List | Glossary On
Versions: 1 2 3 4 5 6 7 8 9 10 11 12 13 14 15 16 17 18 19 20 21 22 23 24 25 26 27 28 29 30 31 32 33 34 35 36 37 38 39 40 41 42 43 44 45 46 47 48 49 50
000
NZUS43 KILX 220910
HWRILX

AREA WEATHER ROUNDUP
NATIONAL WEATHER SERVICE, LINCOLN IL
400 AM CDT FRI AUG 22 2014


CITY           SKY/WX    TMP DP  RH WIND       PRES   REMARKS
BLOOMINGTON    CLOUDY    77  73  87 SW10      29.92R
CHAMPAIGN      CLOUDY    76  74  93 SW7       29.92R
DECATUR        PTCLDY    78  74  87 SW10      29.92R HX  81
FLORA          CLEAR     75  73  92 SW7       29.96S
GALESBURG      TSTM      77  74  92 NW15G22   29.91R
JACKSONVILLE   PTCLDY    79  73  83 SW8       29.93R HX  82
LACON          MOCLDY    76  74  94 CALM      29.90R THUNDER FOG
LAWRENCEVILLE  CLEAR     77  73  87 SW6       29.95F
LITCHFIELD     CLEAR     76  72  88 S8        29.95R
$$


CITY           SKY/WX    TMP DP  RH WIND       PRES   REMARKS
LINCOLN        CLEAR     79  74  85 SW5       29.87S HX  82
MACOMB         PTCLDY    77  73  87 SW9       29.90S
MATTOON        PTCLDY    76  73  91 SW9       29.93S
MT CARMEL AP   CLEAR     79  73  83 SW8       29.95F HX  82
OLNEY-NOBLE AP CLEAR     75  73  94 CALM      29.95F
PARIS          PTCLDY    76  74  95 SW6       29.93S
PEORIA         MOCLDY    80  75  84 NE3       29.90R HX  85
PONTIAC          N/A     73  73 100 E14       29.91  THUNDER
RANTOUL        CLOUDY    78  74  86 SW8       29.92S HX  80
ROBINSON       CLEAR     77  75  92 SW7       29.95S
SPRINGFIELD    CLEAR     80  73  79 SW7       29.91R HX  84
TAYLORVILLE    CLEAR     75  72  88 SW8       29.93R
$$

...REGIONAL REPORTS...


CITY           SKY/WX    TMP DP  RH WIND       PRES   REMARKS
CHICAGO O`HARE LGT RAIN  73  69  87 SE5       29.90F
KANKAKEE       CLOUDY    73  72  95 N5        29.92R
MOLINE         CLOUDY    77  74  90 S7        29.87S
MOUNT VERNON   CLEAR     75  70  83 SW6       29.97S
PITTSFIELD     CLEAR     81  70  69 SW9       29.93R HX  84
QUINCY         CLEAR     79  71  76 SW10      29.90S HX  82
ROCKFORD       CLOUDY    74  72  93 SE3       29.92R FOG
$$


CITY           SKY/WX    TMP DP  RH WIND       PRES   REMARKS
BURLINGTON     MOCLDY    76  75  97 VRB5      29.88R
CEDAR RAPIDS   PTCLDY    72  72 100 E5        29.86F FOG
DES MOINES     TSTM      75  71  87 SE7       29.87F
KIRKSVILLE     PTCLDY    80  71  74 SW10      29.92S HX  84
OTTUMWA        CLOUDY    78  71  79 W8        29.87S HX  80
ST LOUIS       CLEAR     82  68  62 SW13      29.95S HX  85
$$


CITY           SKY/WX    TMP DP  RH WIND       PRES   REMARKS
TERRE HAUTE    CLEAR     76  72  87 SW7       29.94S
EVANSVILLE     PTCLDY    77  72  84 SW8       29.97F
INDIANAPOLIS   MOCLDY    75  72  90 SW10      29.94F
LAFAYETTE      LGT RAIN  76  74  93 SW5       29.90S
MADISON        FOG       73  72  96 S5        29.90R VSB 1/2
MILWAUKEE      FOG       71  69  93 S6        29.91R VSB 1/8
$$





USA.gov is the U.S. government's official web portal to all federal, state and local government web resources and services.